This demonstration page uses our WeatherBlox Daily Observations layout. Learn more.

Left ArrowRight Arrow

Hourly Observations for March 10, 2020

Temp ( °F °C ) Dew Point ( °F °C ) Humidity (%) Winds ( mph kmh ) Pressure ( in mb ) Visibility ( mi km ) Precip ( " mm )
12:15 am 00:15 Cloudy 54 12 51 10.5 91 91 S 17 28 30.03 1017 10 16 N/A
12:35 am 00:35 Cloudy 54 12.1 51 10.6 91 91 SSW 18 30 30.03 1017 7 11 N/A
12:55 am 00:55 Cloudy 54 12 52 11 94 94 SSW 17 28 30.02 1017 7 11 N/A
1:15 am 01:15 Cloudy 54 12 52 11 94 94 SSW 17 28 30.02 1017 7 11 N/A
1:35 am 01:35 Cloudy 54 12.1 52 11.1 94 94 SSW 16 26 30.01 1016 5 8 N/A
1:55 am 01:55 Cloudy 54 12.1 52 11.3 95 95 SSW 15 24 30.01 1016 5 8 N/A
2:15 am 02:15 Cloudy 54 12.2 53 11.4 95 95 SSW 16 26 30.00 1016 5 8 N/A
2:35 am 02:35 Cloudy 54 12.2 53 11.5 96 96 SSW 13 20 29.99 1016 5 8 N/A
2:55 am 02:55 Cloudy 54 12.3 53 11.7 96 96 SSW 12 19 29.99 1016 4 6 N/A
3:15 am 03:15 Cloudy 55 12.5 54 12 97 97 SSW 10 17 29.98 1015 5 8 N/A
3:35 am 03:35 Cloudy 55 12.7 54 12.1 96 96 SSW 10 17 29.97 1015 10 16 N/A
3:55 am 03:55 Cloudy 55 12.8 54 12.2 96 96 SSW 12 19 29.96 1015 5 8 N/A
4:15 am 04:15 Cloudy 55 12.8 54 12.3 97 97 SSW 13 20 29.95 1014 10 16 N/A
4:35 am 04:35 Cloudy 55 13 54 12.3 96 96 SSW 9 15 29.95 1014 10 16 N/A
4:55 am 04:55 Cloudy 55 12.9 54 12.3 96 96 S 10 17 29.93 1014 7 11 N/A
5:15 am 05:15 Cloudy 55 13 54 12.3 96 96 SSW 10 17 29.94 1014 10 16 N/A
5:35 am 05:35 Cloudy 55 12.9 54 12.3 96 96 SW 7 11 29.94 1014 10 16 N/A
5:55 am 05:55 Cloudy 56 13.1 54 12.3 95 95 SW 9 15 29.94 1014 10 16 N/A
6:15 am 06:15 Cloudy 55 13 54 12.2 95 95 SW 9 15 29.95 1014 10 16 N/A
6:35 am 06:35 Cloudy 55 12.8 54 12 95 95 SW 10 17 29.95 1014 10 16 N/A
6:55 am 06:55 Cloudy 55 12.7 54 12 96 96 WSW 9 15 29.96 1015 4 6 N/A
7:15 am 07:15 Cloudy 55 12.5 54 12.1 97 97 WNW 15 24 29.99 1016 5 8 N/A
7:30 am 07:30 Cloudy 52 11.1 51 10.4 96 96 NW 13 20 30.02 1016 5 8 N/A
11:15 am 11:15 Cloudy 46 7.7 44 6.7 93 93 NW 15 24 30.17 1022 10 16 N/A
11:35 am 11:35 Cloudy 46 7.5 44 6.6 94 94 WNW 12 19 30.19 1022 7 11 N/A
11:55 am 11:55 Cloudy 45 7.1 43 6.1 93 93 NW 14 22 30.19 1022 10 16 N/A
12:15 pm 12:15 Cloudy 44 6.8 43 6.1 95 95 WNW 10 17 30.21 1023 3 5 N/A
12:35 pm 12:35 Cloudy 44 6.6 43 6 96 96 NW 12 19 30.21 1023 5 8 N/A
12:55 pm 12:55 Cloudy 44 6.9 43 6 94 94 NW 7 11 30.21 1023 7 11 N/A
1:15 pm 13:15 Cloudy 44 6.8 43 6 95 95 WNW 3 6 30.23 1024 4 6 N/A
1:35 pm 13:35 Cloudy 44 6.8 43 6 95 95 NW 6 9 30.23 1024 7 11 N/A
1:55 pm 13:55 Cloudy 44 6.7 42 5.8 94 94 NNW 7 11 30.22 1023 10 16 N/A
2:15 pm 14:15 Cloudy 44 6.8 42 5.5 92 92 NW 9 15 30.22 1023 10 16 N/A
2:35 pm 14:35 Cloudy 44 6.7 41 5.1 90 90 NW 8 13 30.22 1023 10 16 N/A
2:55 pm 14:55 Cloudy 44 6.5 41 5.1 91 91 NW 8 13 30.22 1023 10 16 N/A
3:15 pm 15:15 Cloudy 44 6.5 41 5 90 90 NW 8 13 30.22 1023 10 16 N/A
3:35 pm 15:35 Cloudy 43 6.3 40 4.7 90 90 NW 7 11 30.22 1023 10 16 N/A
3:55 pm 15:55 Cloudy 44 6.6 40 4.7 88 88 WNW 5 7 30.23 1024 10 16 N/A
4:15 pm 16:15 Cloudy 45 7 40 4.7 85 85 WNW 6 9 30.23 1024 10 16 N/A
4:35 pm 16:35 Cloudy 45 7 40 4.7 85 85 WNW 6 9 30.24 1024 10 16 N/A
4:55 pm 16:55 Cloudy 45 7.3 41 4.9 85 85 NW 10 17 30.23 1024 10 16 N/A
5:15 pm 17:15 Cloudy 45 7 40 4.6 85 85 WNW 7 11 30.24 1024 10 16 N/A
5:35 pm 17:35 Cloudy 45 7.2 40 4.5 83 83 NW 8 13 30.23 1024 10 16 N/A
5:55 pm 17:55 Cloudy 44 6.8 40 4.4 85 85 NNW 10 17 30.23 1024 10 16 N/A
11:35 pm 23:35 Cloudy 39 4 37 2.6 91 91 ENE 3 6 30.26 1025 10 16 N/A
11:55 pm 23:55 Cloudy 39 3.7 37 2.6 93 93 ENE 5 7 30.26 1025 10 16 N/A

Powered by AerisWeather